CZ-4B R/B

Last updated on Thu Oct 30 2025 00:02:15 GMT+0000 (Coordinated Universal Time)

1 29507U 06046C 25302.53268500 .00006970 00000+0 36906-3 0 9998 2 29507 97.5806 342.7937 0034537 4.3911 355.7618 15.15223729 40179
UTC large
Height (km)
Speed (km/s)
/
Latitude / Longitude
Inclination (degrees)
Orbital Period (minutes)
Azimuth
Elevation
Range (km)
Doppler Factor

Next 0 passes for location: London (51.5072 / 0.1276)

Sorry there are no passes over London.